Погода в Айя-Напе

Кипр     34°59′24″N   33°59′55″E
темп.,
°C
ветер,
м/с
пор.,
м/с
влажн.,
%
обл.,
%
осадки,
мм/ч
давл.,
гПа
погр.,
м
22 апреля, чт
чт2200:00+17ссз44640 0.0 1018192
03:00+16ссз34600 0.0 1018156
06:00+15сз34585 0.0 1019143
09:00+17ссз22500 0.0 1019308
12:00+18вюв32520 0.0 1020511
15:00+19ю54610 0.0 1019649
18:00+19ююз55670 0.0 1019508
21:00+18юз33660 0.0 1020208
23 апреля, пт
пт2300:00+17зсз11683 0.0 1019102
03:00+17сз22682 0.0 1019107
06:00+17с33670 0.0 1019157
09:00+19ссв33610 0.0 1019328
12:00+20св44570 0.0 1019253
15:00+20всв4563100 0.0 1017175
18:00+20всв3463100 0.0 1016103
21:00+20сз33625 0.0 101624
24 апреля, сб
сб2400:00+18ссз56645 0.0 1016113
03:00+18сз56615 0.0 1014111
06:00+18ссз45600 0.0 101390
09:00+21с44510 0.0 101396
12:00+23св55470 0.0 1013184
15:00+23св56540 0.0 1011165
18:00+23ссв22555 0.0 101052
21:00+22сз335422 0.0 101017
25 апреля, вс
вс2500:00+20сз44565 0.0 101041
03:00+20сз44505 0.0 100932
06:00+20ссз33535 0.0 100813
09:00+22ссз1149100 0.0 100867
12:00+23ю3345100 0.0 1008160
15:00+22ююз4452100 0.0 1007101
18:00+22юз4557100 0.0 100684
21:00+20ю556733 0.0 100668
26 апреля, пн
пн2600:00+20юз5670100 0.0 100581
03:00+19юз710702 0.0 1004167
06:00+19юз68800 0.0 1004201
09:00+19юз99730 0.0 1006473
12:00+19ююз1111760 0.0 1007596
15:00+19юз1112780 0.0 1006523
18:00+20юз78750 0.0 1006370
21:00+19зсз45670 0.0 1008105